Погода в Амбато

Эквадор     1°15′10″S   78°37′57″W
темп.,
°C
ветер,
м/с
пор.,
м/с
влажн.,
%
обл.,
%
осадки,
мм/ч
давл.,
гПа
погр.,
м
12 мая, ср
ср1201:00+5вюв349795 0.3 1020198
04:00+4вюв2396100 0.1 1020249
07:00+5вюв339683 0.1 1021302
10:00+8вюв357833 0.1 1020766
13:00+13в565912 0.3 10151288
16:00+9в447676 0.1 1015748
19:00+6вюв239667 0.2 1019248
22:00+4юв2210082 0.0 102337
13 мая, чт
чт1301:00+5вюв2397100 0.0 1020218
04:00+6в2399100 0.1 1019165
07:00+6вюв3499100 0.2 1019183
10:00+10в457316 0.1 1019783
13:00+13в556113 0.2 10151079
16:00+11вюв446513 0.2 1015840
19:00+5юв239981 0.2 1019113
22:00+5вюв2396100 0.0 1022195
14 мая, пт
пт1401:00+6в229699 0.1 1020279
04:00+5в239880 0.1 1019269
07:00+6вюв229795 0.2 1020161
10:00+10в338196 0.3 1019654
13:00+12в546571 0.8 10161052
16:00+12в436672 0.4 10131103
19:00+6вюв129848 0.5 101855
22:00+5юв229598 0.0 1022186
15 мая, сб
сб1501:00+5вюв1296100 0.0 1021237
04:00+5вюв119385 0.1 1020212
07:00+6в1290100 0.2 1020121
10:00+12в446344 0.1 1018979
13:00+13в436248 1.0 10141295
16:00+10в337994 2.3 1014893
19:00+6юв229787 3.0 1019162
22:00+6вюв129780 0.1 1022158
16 мая, вс
вс1601:00+6в129764 0.2 1020145
04:00+4вюв019780 0.1 102033
07:00+6ю019010 0.1 102080
10:00+12в436411 0.2 10181055
13:00+14в335428 1.2 10131530
16:00+10вюв337793 2.1 1014968
19:00+7вюв119341 3.5 1019108
22:00+6вюв119670 0.5 102289